Starlink 35625

operational
NORAD ID: 66140 Int'l Des: 2025-237 Owner: SPXS Country: US Constellation: starlink
LEOCIRCULAR

About Starlink 35625

Description loading...

Live Position

Loading 3D Globe...

Upcoming Passes

Altitude History

Altitude vs Time

uPlot chart will show altitude changes over time

Two-Line Element Set

1 66140U 25237AC 25348.91668981 -.00015834 00000-0 -38633-3 0 9995
2 66140 53.1592 76.9669 0001058 79.6343 181.0460 15.39647385 5829
Epoch: Dec 14, 2025 • Age: 18 hours

Current Status

Altitude 453.0 km
Velocity 7.65 km/s
Sub-Earth Point 52.89°N, 170.09°W
Launch Date Oct 22, 2025
Age 0.1 years
Type internet

Technical Details

Classification Payload
Mass 575.00 kg
Dry Mass 530.00 kg
Total Mass 575.00 kg
Length 0.30 m
Diameter 4.10 m
Span 29.00 m
Shape Box + pan
Manufacturer SPXS
Bus Type Starlink V2MO
Phase Status In Orbit
Owner/State SPXS/US

Large Constellations

Loading constellations...